Location: Castiglione Fibocchi
(43.5333°N, 11.7667°E)
Time: 09:26:06
(UTC+00:00)

Cosmos 1470 - Pass Details

Date: 15 August 2020
Orbit: 520 x 543 km, 82.5° (Epoch: 19 September)

Event Time Altitude Azimuth Distance (km) Brightness Sun altitude
Exits shadow 01:24:02 36° 334° (NNW) 880 4.0 -25.7°
Drops below altitude 10° 01:26:41 10° 358° (N) 1,820 6.1 -25.4°
Sets 01:28:54 0° 4° (N) 2,718 7.3 -25.1°
